Content
SEND FEEDBACK

Daily
Averages
Monthly
Summary
United States of America

EL PASO, TEXAS


Home > North America > United States > Texas
Elevation: 3918 feet     Latitude: 31 48N     Longitude: 106 24W

WEATHER
 
SELECT A DAY
Number of Records: 174,081;   Date Range: 1/1/95 - 9/30/14
 
SHARE

PRINT THIS DATA

[ ← Previous Day ]
WEATHER ALMANAC - APRIL 19, 2013
[ Next Day → ]
[ °C ]   °F
Weather ElementAverageHighLow
Temperature54.4 °F66 °F (4:51 pm)39 °F (6:51 am)
Dewpoint-3.7 °F1 °F (8:51 am)-11 °F (7:51 pm)
Humidity10.1 %19 % (6:51 am)5 % (4:51 pm)
Barometer30.07 in30.20 in (9:51 am)29.93 in (11:51 pm)
Wind Speed7.8 mph13.8 mph (2:51 am)
Wind Gust18.4 mph (4:51 pm)
Weather ElementAverage
Visibility10 mi
Wind DirectionS (175.2 °)

Weather ElementTotal
Precipitation---
Heating Degree Days12.5 (Base 65)
Growing Degree Days2.5 (Base 50)
Averaged from 23 records on April 19, 2013
WEATHER CONDITIONS BREAKOUT
WIND DIRECTION BREAKOUT
WEATHER BY HOUR - APRIL 19, 2013
[ °C ]   °F
Local TimeTemperatureDewpointHumidityBarometerVisibilityWind DirectionWind SpeedGust SpeedPrecipitationEventsConditions
1:51 AM48.0 °F0.0 °F14 %30.10 in10.0 miNorth (350°)12.7 mphClear
2:51 AM46.0 °F-0.9 °F14 %30.10 in10.0 miNorth (350°)13.8 mphClear
3:51 AM45.0 °F-2.0 °F14 %30.11 in10.0 miNNW (340°)13.8 mphClear
4:51 AM45.0 °F-2.0 °F14 %30.11 in10.0 miNorth (350°)12.7 mphClear
5:51 AM43.0 °F-2.0 °F15 %30.14 in10.0 miNorth (10°)11.5 mphClear
6:51 AM39.0 °F-0.9 °F19 %30.17 in10.0 miNNE (20°)5.8 mphClear
7:51 AM45.0 °F0.0 °F15 %30.18 in10.0 miNorth (350°)11.5 mphClear
8:51 AM48.0 °F1.0 °F14 %30.19 in10.0 miNorth (350°)11.5 mphClear
9:51 AM51.1 °F0.0 °F12 %30.20 in10.0 miNNE (20°)9.2 mphClear
10:51 AM53.1 °F-0.9 °F11 %30.20 in10.0 miENE (70°)5.8 mphClear
11:51 AM55.9 °F-2.9 °F9 %30.17 in10.0 miEast (90°)5.8 mphClear
12:51 PM57.0 °F-6.0 °F8 %30.14 in10.0 miENE (60°)4.6 mphClear
1:51 PM60.1 °F-5.1 °F7 %30.11 in10.0 miSE (130°)3.5 mphClear
2:51 PM64.0 °F-5.1 °F6 %30.07 in10.0 miSSW (200°)6.9 mphClear
3:51 PM64.9 °F-5.1 °F6 %30.03 in10.0 miVariable3.5 mphClear
4:51 PM66.0 °F-6.0 °F5 %29.99 in10.0 miSSW (210°)6.9 mph18.4 mphClear
5:51 PM66.0 °F-8.0 °F5 %29.97 in10.0 miVariable4.6 mphClear
6:51 PM66.0 °F-9.9 °F5 %29.96 in10.0 miSSW (200°)6.9 mphClear
7:51 PM63.0 °F-11.0 °F5 %29.96 in10.0 miSSW (200°)4.6 mphClear
8:51 PM60.1 °F-9.0 °F6 %29.96 in10.0 miWSW (240°)6.9 mphClear
9:51 PM59.0 °F-7.1 °F7 %29.96 in10.0 miSSW (210°)3.5 mphClear
10:51 PM55.0 °F-2.9 °F9 %29.94 in10.0 miSE (140°)6.9 mphClear
11:51 PM52.0 °F1.0 °F12 %29.93 in10.0 miSE (140°)6.9 mphScattered Clouds
Hourly data recorded from KELP, located miles away from El Paso, Texas







STORIES FROM OUR PARTNERS